Location: Alafon
(8.4500°N, 4.2333°E)
Time: 03:56:34
(UTC+00:00)

Vanguard 2 - Pass Details

Date: 12 August 2021
Orbit: 552 x 2937 km, 32.9° (Epoch: 21 September)

Event Time Altitude Azimuth Distance (km) Brightness Sun altitude
Rises 07:34:05 0° 305° (NW) 2,984 10.2 27.7°
Reaches altitude 10° 07:36:03 10° 306° (NW) 2,217 9.6 28.1°
Maximum altitude 07:41:08 85° 34° (NNE) 963 8.6 29.4°
Drops below altitude 10° 07:49:31 10° 123° (ESE) 3,555 11.7 31.4°
Sets 07:53:27 0° 123° (ESE) 4,943 12.2 32.3°
